AC0UD Weather Reports


time (UTC)temp
C
wind
direction
speed
KPH
gust
KPH
rain 1hr
cm
rain 24hr
cm
rain mn
cm
humidity
%
barometer
mb
20260906191627 24 58 8.0 14.5 0.00 0.00 0.00 74 1018.9
20260906191126 24 209 4.8 9.7 0.00 0.00 0.00 74 1019.0
20260906190625 24 35 9.7 12.9 0.00 0.00 0.00 74 1019.0
20260906190114 24 61 4.8 14.5 0.00 0.00 0.00 75 1018.9
20260906185603 23 149 8.0 12.9 0.00 0.00 0.00 75 1018.7
20260906185052 23 35 12.9 14.5 0.00 0.00 0.00 75 1018.8
20260906184551 23 52 4.8 9.7 0.00 0.00 0.00 75 1018.9
20260906184049 23 191 4.8 9.7 0.00 0.00 0.00 76 1018.9
20260906183545 23 207 6.4 12.9 0.00 0.00 0.00 76 1018.9
20260906183044 23 60 8.0 11.3 0.00 0.00 0.00 76 1019.1
20260906182543 23 34 9.7 14.5 0.00 0.00 0.00 76 1019.0
20260906182042 23 211 12.9 16.1 0.00 0.00 0.00 77 1019.1
20260906181539 22 207 8.0 16.1 0.00 0.00 0.00 77 1018.9
20260906181037 22 36 12.9 17.7 0.00 0.00 0.00 78 1019.0
20260906180533 22 35 12.9 16.1 0.00 0.00 0.00 78 1019.0
20260906180031 22 31 12.9 17.7 0.00 0.00 0.00 78 1019.1
20260906175528 22 176 3.2 6.4 0.00 0.00 0.00 78 1019.4
20260906175027 22 186 6.4 16.1 0.00 0.00 0.00 78 1019.3
20260906174525 22 202 8.0 11.3 0.00 0.00 0.00 78 1019.3
20260906174025 22 193 4.8 6.4 0.00 0.00 0.00 79 1019.4
20260906173524 22 194 4.8 12.9 0.00 0.00 0.00 78 1019.4
20260906173023 22 28 14.5 17.7 0.00 0.00 0.00 78 1019.5
20260906172522 22 136 1.6 4.8 0.00 0.00 0.00 78 1019.5
20260906172021 22 199 6.4 11.3 0.00 0.00 0.00 78 1019.5
20260906171520 22 202 4.8 12.9 0.00 0.00 0.00 78 1019.2
20260906171019 22 93 4.8 9.7 0.00 0.00 0.00 79 1019.4
20260906170518 22 33 12.9 14.5 0.00 0.00 0.00 79 1019.5
20260906170006 22 89 4.8 9.7 0.00 0.00 0.00 80 1019.6
20260906165505 22 29 12.9 14.5 0.00 0.00 0.00 80 1019.7
20260906165004 22 64 4.8 14.5 0.00 0.00 0.00 79 1019.8
20260906164503 22 52 6.4 12.9 0.00 0.00 0.00 79 1019.7
20260906164002 22 73 3.2 9.7 0.00 0.00 0.00 79 1019.7
20260906163501 22 20 8.0 16.1 0.00 0.00 0.00 80 1019.6
20260906162950 21 28 11.3 12.9 0.00 0.00 0.00 81 1019.8
20260906162447 22 187 3.2 6.4 0.00 0.00 0.00 81 1019.9
20260906161946 21 199 3.2 8.0 0.00 0.00 0.00 81 1019.8
20260906161445 21 52 4.8 9.7 0.00 0.00 0.00 81 1019.8
20260906160944 21 189 3.2 6.4 0.00 0.00 0.00 81 1019.9
20260906160443 21 213 4.8 8.0 0.00 0.00 0.00 81 1019.9
20260906155942 21 39 4.8 11.3 0.00 0.00 0.00 82 1019.8
20260906155441 21 23 8.0 14.5 0.00 0.00 0.00 83 1019.8
20260906154940 20 23 11.3 14.5 0.00 0.00 0.00 84 1019.8
20260906154439 20 170 3.2 6.4 0.00 0.00 0.00 85 1019.8
20260906153925 20 210 12.9 14.5 0.00 0.00 0.00 85 1019.8
20260906153424 20 195 4.8 6.4 0.00 0.00 0.00 85 1020.0
20260906152923 20 191 4.8 12.9 0.00 0.00 0.00 85 1020.1
20260906152412 20 202 6.4 14.5 0.00 0.00 0.00 86 1020.0
20260906151911 20 202 6.4 9.7 0.00 0.00 0.00 84 1020.2
20260906151408 20 27 6.4 11.3 0.00 0.00 0.00 84 1020.2
20260906150907 20 24 9.7 12.9 0.00 0.00 0.00 85 1020.2
20260906150405 20 192 3.2 6.4 0.00 0.00 0.00 85 1020.2
20260906145851 20 205 8.0 14.5 0.00 0.00 0.00 85 1020.0
20260906145349 20 217 11.3 14.5 0.00 0.00 0.00 84 1019.8
20260906144849 20 206 6.4 9.7 0.00 0.00 0.00 84 1019.9
20260906144347 20 208 9.7 14.5 0.00 0.00 0.00 85 1019.7
20260906143847 20 214 6.4 12.9 0.00 0.00 0.00 85 1019.8
20260906143345 20 213 9.7 16.1 0.00 0.00 0.00 84 1019.8
20260906142844 20 210 8.0 14.5 0.00 0.00 0.00 85 1019.8
20260906142343 20 205 8.0 11.3 0.00 0.00 0.00 85 1019.7
20260906141842 20 201 8.0 12.9 0.00 0.00 0.00 85 1019.8
20260906141341 21 186 3.2 8.0 0.00 0.00 0.00 85 1020.0
20260906140840 21 206 4.8 8.0 0.00 0.00 0.00 84 1019.8
20260906140340 21 26 6.4 11.3 0.00 0.00 0.00 84 1019.8
20260906135838 21 57 4.8 9.7 0.00 0.00 0.00 83 1019.9
20260906135337 21 219 6.4 9.7 0.00 0.00 0.00 85 1019.8
20260906134826 21 30 8.0 11.3 0.00 0.00 0.00 85 1019.6
20260906134325 21 28 8.0 12.9 0.00 0.00 0.00 85 1019.7
20260906133825 20 29 6.4 9.7 0.00 0.00 0.00 86 1019.7
20260906133313 20 30 11.3 16.1 0.00 0.00 0.00 86 1019.6
20260906132801 20 33 8.0 12.9 0.00 0.00 0.00 86 1019.5
20260906132259 20 23 8.0 9.7 0.00 0.00 0.00 87 1019.6
20260906131758 20 21 9.7 9.7 0.00 0.00 0.00 87 1019.3
20260906131247 20 23 9.7 11.3 0.00 0.00 0.00 87 1019.4
20260906130746 20 24 4.8 11.3 0.00 0.00 0.00 87 1019.2
20260906130245 20 37 6.4 9.7 0.00 0.00 0.00 87 1019.3
20260906125744 20 105 3.2 3.2 0.00 0.00 0.00 87 1019.3
20260906125243 20 33 8.0 9.7 0.00 0.00 0.00 87 1019.3
20260906124742 20 26 8.0 9.7 0.00 0.00 0.00 87 1019.2
20260906124241 20 23 9.7 11.3 0.00 0.00 0.00 87 1019.2
20260906123740 20 27 4.8 6.4 0.00 0.00 0.00 86 1019.2
20260906123236 20 96 1.6 3.2 0.00 0.00 0.00 85 1019.2
20260906122735 20 107 3.2 3.2 0.00 0.00 0.00 85 1019.2
20260906122221 20 174 1.6 3.2 0.00 0.00 0.00 86 1019.2
20260906121708 20 188 3.2 4.8 0.00 0.00 0.00 86 1019.3
20260906121207 20 187 3.2 4.8 0.00 0.00 0.00 86 1019.2
20260906120706 20 194 4.8 4.8 0.00 0.00 0.00 86 1019.1
20260906120155 20 178 3.2 3.2 0.00 0.00 0.00 86 1019.0
20260906115653 20 193 4.8 4.8 0.00 0.00 0.00 86 1018.9
20260906115150 21 186 3.2 4.8 0.00 0.00 0.00 86 1018.9
20260906114650 21 210 9.7 12.9 0.00 0.00 0.00 85 1019.0
20260906114148 21 206 3.2 6.4 0.00 0.00 0.00 85 1019.0
20260906113647 21 208 8.0 12.9 0.00 0.00 0.00 85 1019.0
20260906113146 21 209 6.4 9.7 0.00 0.00 0.00 86 1018.9
20260906112635 21 204 6.4 8.0 0.00 0.00 0.00 85 1018.8
20260906112134 21 211 6.4 9.7 0.00 0.00 0.00 86 1018.7
20260906111633 21 210 6.4 8.0 0.00 0.00 0.00 86 1018.7
20260906111132 21 213 8.0 9.7 0.00 0.00 0.00 86 1018.7
20260906110631 21 208 6.4 9.7 0.00 0.00 0.00 86 1018.7
20260906110130 21 212 8.0 11.3 0.00 0.00 0.00 87 1018.5
20260906105629 21 211 4.8 6.4 0.00 0.00 0.00 87 1018.5
20260906105129 21 209 4.8 4.8 0.00 0.00 0.00 87 1018.6
20260906104617 21 208 4.8 4.8 0.00 0.00 0.00 87 1018.6
20260906104117 21 203 4.8 6.4 0.00 0.00 0.00 87 1018.7
20260906103616 21 209 3.2 3.2 0.00 0.00 0.00 87 1018.6
20260906103115 21 217 3.2 6.4 0.00 0.00 0.00 87 1018.5
20260906102604 21 169 1.6 3.2 0.00 0.00 0.00 87 1018.5
20260906102103 21 203 3.2 3.2 0.00 0.00 0.00 87 1018.5
20260906101600 21 205 3.2 4.8 0.00 0.00 0.00 87 1018.6
20260906101059 21 213 6.4 6.4 0.00 0.00 0.00 86 1018.5
20260906100558 21 209 4.8 6.4 0.00 0.00 0.00 86 1018.4
20260906100047 21 208 3.2 8.0 0.00 0.00 0.00 86 1018.3
20260906095546 21 207 4.8 8.0 0.00 0.00 0.00 86 1018.2
20260906095042 21 207 6.4 8.0 0.00 0.00 0.00 86 1018.0
20260906094541 21 205 6.4 8.0 0.00 0.00 0.00 85 1017.9
20260906094040 21 13 3.2 4.8 0.00 0.00 0.00 85 1017.8
20260906093539 21 194 3.2 3.2 0.00 0.00 0.00 85 1017.8
20260906093028 21 198 4.8 6.4 0.00 0.00 0.00 85 1017.7
20260906092512 21 203 4.8 6.4 0.00 0.00 0.00 85 1017.8
20260906092011 21 196 4.8 6.4 0.00 0.00 0.00 84 1017.8
20260906091510 21 141 3.2 4.8 0.00 0.00 0.00 84 1017.7
20260906091008 21 162 3.2 4.8 0.00 0.00 0.00 83 1017.7
20260906090506 21 200 3.2 4.8 0.00 0.00 0.00 83 1017.9
20260906090005 21 48 3.2 4.8 0.00 0.00 0.00 83 1017.8
20260906085453 21 139 3.2 3.2 0.00 0.00 0.00 83 1017.9
20260906084953 22 158 1.6 1.6 0.00 0.00 0.00 83 1017.8
20260906084449 22 153 1.6 3.2 0.00 0.00 0.00 83 1017.8
20260906083948 22 89 3.2 3.2 0.00 0.00 0.00 82 1017.8
20260906083447 22 125 3.2 4.8 0.00 0.00 0.00 82 1017.8
20260906082946 22 45 9.7 16.1 0.00 0.00 0.00 82 1017.7
20260906082443 22 38 6.4 11.3 0.00 0.00 0.00 82 1017.7
20260906081942 22 38 12.9 16.1 0.00 0.00 0.00 81 1017.7
20260906081441 22 24 12.9 14.5 0.00 0.00 0.00 81 1017.7
20260906080940 22 40 9.7 12.9 0.00 0.00 0.00 81 1017.7
20260906080439 22 37 14.5 16.1 0.00 0.00 0.00 81 1017.7
20260906075935 22 45 8.0 12.9 0.00 0.00 0.00 81 1017.7
20260906075433 22 37 9.7 17.7 0.00 0.00 0.00 81 1017.7
20260906074929 22 51 6.4 9.7 0.00 0.00 0.00 81 1017.7
20260906074428 22 43 8.0 11.3 0.00 0.00 0.00 81 1017.7
20260906073927 22 49 6.4 8.0 0.00 0.00 0.00 80 1017.8
20260906073426 22 54 3.2 4.8 0.00 0.00 0.00 80 1018.0
20260906072925 22 84 4.8 6.4 0.00 0.00 0.00 80 1017.9
20260906072423 22 59 4.8 6.4 0.00 0.00 0.00 80 1018.0
20260906071922 22 83 3.2 4.8 0.00 0.00 0.00 80 1017.9
20260906071421 22 47 4.8 6.4 0.00 0.00 0.00 80 1017.9
20260906070920 22 83 3.2 4.8 0.00 0.00 0.00 80 1018.0
20260906070416 22 61 1.6 3.2 0.00 0.00 0.00 80 1018.1
20260906065914 23 58 3.2 3.2 0.00 0.00 0.00 80 1018.2
20260906065414 23 60 4.8 6.4 0.00 0.00 0.00 80 1018.3
20260906064912 23 36 9.7 11.3 0.00 0.00 0.00 80 1018.2
20260906064410 23 51 9.7 12.9 0.00 0.00 0.00 80 1018.1
20260906063909 23 49 8.0 11.3 0.00 0.00 0.00 80 1018.2
20260906063356 23 39 8.0 14.5 0.00 0.00 0.00 80 1018.2
20260906062855 23 52 6.4 8.0 0.00 0.00 0.00 79 1018.2
20260906062355 23 61 6.4 9.7 0.00 0.00 0.00 79 1018.1
20260906061853 23 31 9.7 14.5 0.00 0.00 0.00 79 1018.1
20260906061352 23 40 11.3 14.5 0.00 0.00 0.00 79 1018.1
20260906060851 23 47 9.7 14.5 0.00 0.00 0.00 79 1018.3
20260906060350 23 49 6.4 14.5 0.00 0.00 0.00 79 1018.4
20260906055849 23 43 6.4 12.9 0.00 0.00 0.00 79 1018.3
20260906055338 23 55 6.4 11.3 0.00 0.00 0.00 79 1018.2
20260906054837 23 206 8.0 14.5 0.00 0.00 0.00 79 1018.2
20260906054336 23 216 12.9 17.7 0.00 0.00 0.00 78 1018.2
20260906053832 23 215 11.3 14.5 0.00 0.00 0.00 78 1018.2
20260906053321 23 216 12.9 16.1 0.00 0.00 0.00 78 1018.2
20260906052820 23 212 9.7 12.9 0.00 0.00 0.00 78 1018.1
20260906052319 23 209 9.7 12.9 0.00 0.00 0.00 77 1018.2
20260906051818 23 212 9.7 12.9 0.00 0.00 0.00 77 1018.3
20260906051315 23 212 9.7 14.5 0.00 0.00 0.00 77 1018.3
20260906050814 23 199 4.8 6.4 0.00 0.00 0.00 77 1018.4
20260906050313 23 57 3.2 6.4 0.00 0.00 0.00 77 1018.4
20260906045812 23 50 3.2 6.4 0.00 0.00 0.00 77 1018.4
20260906045311 23 205 6.4 8.0 0.00 0.00 0.00 77 1018.3
20260906044806 23 210 4.8 6.4 0.00 0.00 0.00 77 1018.3
20260906044305 23 215 8.0 12.9 0.00 0.00 0.00 77 1018.3
20260906043804 23 217 9.7 12.9 0.00 0.00 0.00 77 1018.4
20260906043303 23 217 11.3 12.9 0.00 0.00 0.00 77 1018.4
20260906042801 23 215 8.0 9.7 0.00 0.00 0.00 77 1018.5
20260906042300 23 212 4.8 6.4 0.00 0.00 0.00 77 1018.5
20260906041757 23 217 8.0 9.7 0.00 0.00 0.00 77 1018.5
20260906041256 23 215 9.7 11.3 0.00 0.00 0.00 77 1018.4
20260906040756 23 215 6.4 8.0 0.00 0.00 0.00 77 1018.4
20260906040255 23 214 3.2 4.8 0.00 0.00 0.00 77 1018.5
20260906035754 24 207 4.8 8.0 0.00 0.00 0.00 76 1018.5
20260906035250 24 199 3.2 4.8 0.00 0.00 0.00 76 1018.6
20260906034749 24 212 4.8 6.4 0.00 0.00 0.00 76 1018.6
20260906034248 24 211 3.2 3.2 0.00 0.00 0.00 76 1018.6
20260906033747 24 114 1.6 1.6 0.00 0.00 0.00 76 1018.5
20260906033246 24 180 0.0 1.6 0.00 0.00 0.00 76 1018.5
20260906032742 24 22 0.0 3.2 0.00 0.00 0.00 76 1018.6
20260906032241 24 177 0.0 1.6 0.00 0.00 0.00 76 1018.5
20260906031740 24 200 1.6 3.2 0.00 0.00 0.00 75 1018.5
20260906031236 24 204 1.6 3.2 0.00 0.00 0.00 75 1018.5
20260906030734 24 213 3.2 6.4 0.00 0.00 0.00 75 1018.6
20260906030232 24 213 4.8 6.4 0.00 0.00 0.00 75 1018.5
20260906025731 24 216 3.2 6.4 0.00 0.00 0.00 75 1018.6
20260906025230 24 212 4.8 9.7 0.00 0.00 0.00 75 1018.6
20260906024729 24 214 3.2 6.4 0.00 0.00 0.00 74 1018.6
20260906024228 25 225 3.2 9.7 0.00 0.00 0.00 74 1018.7
20260906023725 24 221 4.8 6.4 0.00 0.00 0.00 73 1018.6
20260906023225 24 218 8.0 11.3 0.00 0.00 0.00 74 1018.4
20260906022723 24 213 6.4 9.7 0.00 0.00 0.00 74 1018.2
20260906022222 24 185 1.6 4.8 0.00 0.00 0.00 73 1018.1
20260906021717 24 198 3.2 4.8 0.00 0.00 0.00 73 1018.1
20260906021216 24 206 4.8 8.0 0.00 0.00 0.00 73 1018.0
20260906020712 25 212 8.0 11.3 0.00 0.00 0.00 72 1017.9
20260906020208 25 206 6.4 12.9 0.00 0.00 0.00 72 1017.8
20260906015708 25 196 4.8 8.0 0.00 0.00 0.00 72 1017.8
20260906015206 25 206 6.4 11.3 0.00 0.00 0.00 72 1017.4
20260906014705 25 211 8.0 14.5 0.00 0.00 0.00 72 1017.2
20260906014204 25 208 9.7 17.7 0.00 0.00 0.00 72 1017.1
20260906013703 25 53 4.8 12.9 0.00 0.00 0.00 73 1016.7
20260906013152 25 190 4.8 8.0 0.00 0.00 0.00 73 1016.9
20260906012651 25 201 6.4 9.7 0.00 0.00 0.00 73 1016.9
20260906012150 25 186 6.4 8.0 0.00 0.00 0.00 73 1016.6
20260906011649 25 199 8.0 12.9 0.00 0.00 0.00 73 1016.7
20260906011147 25 187 6.4 9.7 0.00 0.00 0.00 73 1016.6
20260906010644 26 209 11.3 14.5 0.00 0.00 0.00 73 1016.6
20260906010143 26 210 16.1 20.9 0.00 0.00 0.00 72 1016.3
20260906005631 26 213 6.4 14.5 0.00 0.00 0.00 69 1016.2
20260906005130 26 208 8.0 11.3 0.00 0.00 0.00 68 1016.2
20260906004629 26 194 4.8 11.3 0.00 0.00 0.00 68 1016.1
20260906004128 26 49 6.4 9.7 0.00 0.00 0.00 67 1016.1
20260906003627 26 154 3.2 4.8 0.00 0.00 0.00 67 1015.9
20260906003126 27 130 4.8 11.3 0.00 0.00 0.00 67 1015.7
20260906002615 27 116 3.2 6.4 0.00 0.00 0.00 66 1015.7
20260906002115 27 49 6.4 11.3 0.00 0.00 0.00 66 1015.6
20260906001613 27 143 4.8 6.4 0.00 0.00 0.00 65 1015.9
20260906001113 27 26 6.4 12.9 0.00 0.00 0.00 63 1015.7
20260906000612 27 26 17.7 25.7 0.00 0.00 0.00 63 1015.7
20260906000107 27 26 14.5 20.9 0.00 0.00 0.00 63 1015.7
20260905235605 27 41 16.1 25.7 0.00 0.00 0.00 63 1015.6
20260905235102 27 31 14.5 20.9 0.00 0.00 0.00 62 1015.6
20260905234601 27 30 14.5 16.1 0.00 0.00 0.00 62 1015.7
20260905234100 27 43 19.3 27.4 0.00 0.00 0.00 63 1015.5
20260905233558 27 55 14.5 20.9 0.00 0.00 0.00 63 1015.5
20260905233047 27 42 14.5 19.3 0.00 0.00 0.00 63 1015.3
20260905232546 27 36 16.1 20.9 0.00 0.00 0.00 63 1015.2
20260905232045 27 26 17.7 32.2 0.00 0.00 0.00 62 1015.1
20260905231544 27 36 14.5 20.9 0.00 0.00 0.00 63 1015.2
20260905231043 27 23 11.3 16.1 0.00 0.00 0.00 63 1015.1
20260905230542 27 56 22.5 29.0 0.00 0.00 0.00 63 1015.1
20260905230040 27 65 22.5 29.0 0.00 0.00 0.00 63 1015.0
20260905225539 27 20 16.1 20.9 0.00 0.00 0.00 64 1014.8
20260905225038 27 41 17.7 24.1 0.00 0.00 0.00 64 1015.0
20260905224537 27 40 16.1 24.1 0.00 0.00 0.00 64 1015.0
20260905224036 27 39 19.3 25.7 0.00 0.00 0.00 64 1015.1
20260905223525 27 49 19.3 30.6 0.00 0.00 0.00 64 1015.1
20260905223014 27 31 14.5 19.3 0.00 0.00 0.00 64 1015.2
20260905222513 27 27 14.5 19.3 0.00 0.00 0.00 63 1015.2
20260905222002 27 50 20.9 29.0 0.00 0.00 0.00 63 1015.2
20260905221458 27 29 17.7 27.4 0.00 0.00 0.00 65 1015.3
20260905220954 27 50 11.3 17.7 0.00 0.00 0.00 65 1015.4
20260905220453 27 48 8.0 14.5 0.00 0.00 0.00 65 1015.3